User: anonymous   Login
Location: Theydon Bois
(51.6750°N, 0.1050°E)
Time: 14:11:14
(UTC+01:00)
Language:

SPOT 3 Rocket - Orbit

View from above orbital plane
View from above orbital plane
View from above satellite
View from above satellite

Ground track
Ground track

The orbit data is extracted from the following two-line orbital elements,

1 22830U 93061H   18197.93010090 -.00000043 +00000-0 +12165-5 0  9990
2 22830 098.8556 226.7896 0010284 209.7904 150.2693 14.31418490294460
Epoch (UTC): 16 July 2018 22:19:20
Eccentricity: 0.0010284
inclination: 98.8556°
perigee height: 779 km
apogee height: 794 km
right ascension of ascending node: 226.7896°
argument of perigee: 209.7904°
revolutions per day: 14.31418490
mean anomaly at epoch: 150.2693°
orbit number at epoch: 29446

The dashed part of the orbit path shows where the satellite is in the earth's shadow,  

DLR